Content
SEND FEEDBACK

Daily
Averages
Monthly
Summary
United States of America

VOLCANO, HAWAII


Home > North America > United States > Hawaii
Elevation: 3800 feet     Latitude: 19 26N     Longitude: 155 16W

WEATHER
 
SELECT A DAY
Number of Records: 230,023;   Date Range: 1/1/95 - 7/29/14
 
SHARE

PRINT THIS DATA

[ ← Previous Day ]
WEATHER ALMANAC - JULY 8, 2013
[ Next Day → ]
[ °C ]   °F
We're sorry. There is no daily almanac available for Volcano, Hawaii on July 8, 2013.
WEATHER BY HOUR - JULY 8, 2013
[ °C ]   °F
Local TimeTemperatureDewpointHumidityBarometerVisibilityWind DirectionWind SpeedGust SpeedPrecipitationEventsConditions
1:25 AM71.1 °F68.0 °F90 %29.97 in8.0 miSSW (200°)6.9 mph0.00 inRainLight Rain
1:53 AM71.1 °F68.0 °F90 %29.96 in10.0 miSW (220°)4.6 mph0.00 inOvercast
2:53 AM70.0 °F64.9 °F84 %29.95 in10.0 miWSW (240°)8.1 mph0.00 inOvercast
3:00 AM69.1 °F64.0 °F84 %29.95 in10.0 miWSW (250°)8.1 mphOvercast
3:53 AM70.0 °F61.0 °F73 %29.94 in10.0 miSW (230°)4.6 mphOvercast
4:15 AM71.1 °F62.1 °F73 %29.95 in10.0 miSW (220°)3.5 mphOvercast
4:41 AM72.0 °F64.0 °F76 %29.95 in10.0 miWSW (240°)6.9 mphOvercast
4:53 AM71.1 °F63.0 °F75 %29.95 in10.0 miWest (260°)6.9 mphOvercast
5:53 AM71.1 °F64.9 °F81 %29.96 in10.0 miSW (230°)4.6 mphMostly Cloudy
6:53 AM75.0 °F64.0 °F69 %29.98 in10.0 miSW (230°)4.6 mphScattered Clouds
7:53 AM79.0 °F64.0 °F60 %29.99 in10.0 miWest (260°)4.6 mphScattered Clouds
8:53 AM75.9 °F66.9 °F74 %30.01 in10.0 miSSE (150°)9.2 mph0.00 inOvercast
9:53 AM77.0 °F68.0 °F74 %30.01 in8.0 miCalm0.01 inRainLight Rain
10:15 AM79.0 °F69.1 °F72 %30.01 in10.0 miEast (100°)3.5 mph0.00 inOvercast
10:53 AM82.0 °F69.1 °F65 %30.01 in10.0 miSSE (150°)10.4 mph0.00 inMostly Cloudy
11:08 AM82.0 °F66.9 °F60 %30.01 in10.0 miSE (140°)11.5 mph17.3 mphOvercast
11:53 AM84.0 °F66.9 °F56 %30.00 in10.0 miSE (130°)15.0 mph19.6 mphScattered Clouds
12:53 PM84.0 °F68.0 °F58 %29.99 in10.0 miESE (110°)15.0 mph20.7 mphMostly Cloudy
1:53 PM86.0 °F64.0 °F48 %29.98 in10.0 miESE (110°)16.1 mphPartly Cloudy
2:53 PM82.9 °F64.0 °F53 %29.97 in10.0 miESE (120°)9.2 mphOvercast
3:53 PM84.0 °F64.9 °F53 %29.97 in10.0 miEast (100°)10.4 mphPartly Cloudy
4:53 PM82.9 °F66.0 °F56 %29.97 in10.0 miSE (130°)10.4 mphClear
5:53 PM81.0 °F66.0 °F60 %29.99 in10.0 miESE (120°)10.4 mphClear
6:53 PM78.1 °F66.9 °F68 %30.01 in10.0 miSSE (160°)3.5 mphClear
7:53 PM75.9 °F66.9 °F74 %30.04 in10.0 miSSW (210°)3.5 mphClear
8:53 PM75.9 °F68.0 °F76 %30.05 in10.0 miCalmOvercast
9:51 PM75.2 °F68.0 °F78 %30.07 in10.0 miCalm0.00 inOvercast
9:53 PM75.0 °F68.0 °F79 %30.07 in10.0 miSW (220°)3.5 mph0.00 inOvercast
10:20 PM73.9 °F68.0 °F82 %30.08 in10.0 miCalmMostly Cloudy
10:53 PM73.9 °F68.0 °F82 %30.08 in10.0 miCalmMostly Cloudy
11:02 PM73.9 °F68.0 °F82 %30.08 in10.0 miWSW (250°)4.6 mphMostly Cloudy
11:53 PM73.0 °F66.0 °F79 %30.08 in10.0 miSW (230°)6.9 mphScattered Clouds
Hourly data recorded from PHTO, located miles away from Volcano, Hawaii







STORIES FROM OUR PARTNERS